This is the latest recevied weather packets stored in our database for station/object KF5JED-13. If no packets are shown the sender has not sent any weather packets the latest 10 day(s).
| Time | Temp. | Humidity | Pressure | Rain* | Wind** | Luminosity | Snow |
|---|---|---|---|---|---|---|---|
| 1777814968 | 11.67° C | 66% | 1020.1 hPa | 0 mm | - | 165 W/m² | - |
| 1777814665 | 11.67° C | 67% | 1020.6 hPa | 0 mm | - | 148 W/m² | - |
| 1777814361 | 11.11° C | 68% | 1020.4 hPa | 0 mm | - | 131 W/m² | - |
| 1777814059 | 10.56° C | 69% | 1020.4 hPa | 0 mm | - | 120 W/m² | - |
| 1777813755 | 10.56° C | 71% | 1020.1 hPa | 0 mm | - | 112 W/m² | - |
| 1777813453 | 10° C | 71% | 1020.2 hPa | 0 mm | - | 98 W/m² | - |
| 1777813150 | 10° C | 72% | 1020.1 hPa | 0 mm | - | 85 W/m² | - |
| 1777812848 | 9.44° C | 73% | 1020.1 hPa | 0 mm | - | 72 W/m² | - |
| 1777812544 | 9.44° C | 73% | 1020.1 hPa | 0 mm | - | 62 W/m² | - |
| 1777812242 | 9.44° C | 73% | 1019.9 hPa | 0 mm | - | 56 W/m² | - |
| 1777811940 | 9.44° C | 74% | 1019.8 hPa | 0 mm | - | 49 W/m² | - |
| 1777811639 | 8.89° C | 75% | 1019.8 hPa | 0 mm | - | 41 W/m² | - |
| 1777811334 | 8.33° C | 76% | 1019.7 hPa | 0 mm | - | 34 W/m² | - |
| 1777811031 | 8.33° C | 76% | 1019.7 hPa | 0 mm | - | 28 W/m² | - |
| 1777810729 | 8.33° C | 76% | 1019.6 hPa | 0 mm | - | 22 W/m² | - |
| 1777810425 | 8.33° C | 76% | 1019.6 hPa | 0 mm | - | 16 W/m² | - |
| 1777810120 | 8.33° C | 76% | 1019.6 hPa | 0 mm | - | 12 W/m² | - |
| 1777809818 | 8.33° C | 78% | 1019.6 hPa | 0 mm | - | 8 W/m² | - |
| 1777809516 | 7.78° C | 77% | 1019.7 hPa | 0 mm | - | 6 W/m² | - |
| 1777809214 | 7.78° C | 77% | 1019.5 hPa | 0 mm | - | 3 W/m² | - |
| 1777808912 | 8.33° C | 77% | 1019.5 hPa | 0 mm | - | 2 W/m² | - |
| 1777808608 | 8.33° C | 76% | 1019.4 hPa | 0 mm | - | 1 W/m² | - |
| 1777808305 | 8.33° C | 76% | 1019.6 hPa | 0 mm | - | 0 W/m² | - |
| 1777808004 | 8.33° C | 76% | 1019.4 hPa | 0 mm | - | 0 W/m² | - |
| 1777807700 | 8.33° C | 76% | 1019.2 hPa | 0 mm | - | 0 W/m² | - |
* Rain latest hour (hover to see other rain measurements)
** Current wind speed in m/s (hover to see current wind gust speed)